Погода в Кангиксуджуаке

Канада     61°35′51″N   71°57′24″W
темп.,
°C
ветер,
м/с
пор.,
м/с
влажн.,
%
обл.,
%
осадки,
мм/ч
давл.,
гПа
погр.,
м
16 мая, пн
пн1623:00−3всв4690100 0.3 1015532
02:00−4в5893100 0.8 1014597
05:00−5в5993100 0.5 1014581
08:00−4в71091100 0.7 1013658
11:00−3в71085100 0.2 1012746
14:00−2в81290100 0.6 1010754
17:00−2в81496100 3.3 1010724
20:00−2в71497100 5.9 1010705
17 мая, вт
вт1723:00−3в41198100 3.4 1009610
02:00−3всв41098100 7.3 1008543
05:00−3в41098100 3.3 1008571
08:00−3в41098100 7.2 1008569
11:00−2в41098100 2.3 1008657
14:00−2в51099100 4.1 1007643
17:00−1в41099100 2.1 1007605
20:00−2в41098100 3.8 1007579
18 мая, ср
ср1823:00−2в41098100 2.2 1006574
02:00−3всв41198100 5.8 1005576
05:00−3всв61298100 4.3 1004612
08:00−3всв61298100 11.0 1003684
11:00−2всв61298100 6.4 1002711
14:00−1всв51299100 10.4 1001692
17:00−1в41199100 3.5 1001684
20:00−1всв41099100 6.1 1002584
19 мая, чт
чт1923:00−2всв3698100 1.9 1002343
02:00−3св2398100 3.7 1002132
05:00−3ссв2398100 1.4 1003175
08:00−1всв3698100 2.7 1003469
11:00−1всв37100100 1.4 1004509
14:00−1всв36100100 2.8 1004449
17:00−1всв2599100 1.8 1004409
20:00−1всв2398100 2.6 1004259
20 мая, пт
пт2023:00−2ссв0099100 0.3 100412
02:00−4юз119757 0.3 100510
05:00−9зюз339312 0.0 100615
08:00−5зюз228822 0.0 100677
11:00−1юв128698 0.0 1006161
14:00−1вюв239970 0.0 1006196
17:000юв22100100 0.0 100596
20:000юв12100100 0.0 100580